This is the latest recevied weather packets stored in our database for station/object EA8BYO-10. If no packets are shown the sender has not sent any weather packets the latest 10 day(s).
| Time | Temp. | Humidity | Pressure | Rain* | Wind** | Luminosity | Snow |
|---|---|---|---|---|---|---|---|
| 1787744717 | 29.44° C | 44% | 1008.5 hPa | - | - | - | - |
| 1787743817 | 30° C | 44% | 1008.5 hPa | - | - | - | - |
| 1787742917 | 29.44° C | 44% | 1008.7 hPa | - | - | - | - |
| 1787742017 | 28.89° C | 46% | 1008.4 hPa | - | - | - | - |
| 1787741116 | 28.89° C | 46% | 1008.6 hPa | - | - | - | - |
| 1787740215 | 28.89° C | 44% | 1008.6 hPa | - | - | - | - |
| 1787739315 | 29.44° C | 44% | 1008.3 hPa | - | - | - | - |
| 1787738415 | 28.89° C | 45% | 1008.2 hPa | - | - | - | - |
| 1787737515 | 28.89° C | 46% | 1008.1 hPa | - | - | - | - |
| 1787736615 | 28.33° C | 47% | 1007.9 hPa | - | - | - | - |
| 1787735715 | 27.78° C | 48% | 1007.8 hPa | - | - | - | - |
| 1787734815 | 27.22° C | 49% | 1007.8 hPa | - | - | - | - |
| 1787733915 | 27.22° C | 51% | 1007.6 hPa | - | - | - | - |
| 1787733015 | 26.67° C | 52% | 1007.6 hPa | - | - | - | - |
| 1787732114 | 26.67° C | 52% | 1007.4 hPa | - | - | - | - |
| 1787731214 | 25.56° C | 53% | 1007.5 hPa | - | - | - | - |
| 1787730314 | 25° C | 55% | 1007.5 hPa | - | - | - | - |
| 1787729414 | 24.44° C | 57% | 1007.4 hPa | - | - | - | - |
| 1787728514 | 23.33° C | 58% | 1007.3 hPa | - | - | - | - |
| 1787727614 | 22.78° C | 58% | 1007.2 hPa | - | - | - | - |
| 1787726714 | 22.22° C | 58% | 1007.1 hPa | - | - | - | - |
| 1787725814 | 22.22° C | 58% | 1007.1 hPa | - | - | - | - |
| 1787724914 | 22.22° C | 57% | 1007 hPa | - | - | - | - |
| 1787724014 | 22.22° C | 58% | 1007 hPa | - | - | - | - |
| 1787723113 | 22.22° C | 58% | 1007.2 hPa | - | - | - | - |
* Rain since midnight (hover to see other rain measurements)
** Current wind speed in m/s (hover to see current wind gust speed)